Wind_Speed
32 28 27 26 26 28 29 29 26 24 23 23 24 21 20 20 20 19 17 16 15 14 14 13 13 12 11 11 12 12 12 12 12 13 13 12 12 11 12 12 13 14 14 14
36 32 29 28 27 27 28 29 28 26 26 24 26 24 23 22 21 20 19 18 17 16 16 15 14 14 13 13 13 13 13 13 13 13 14 14 13 12 13 13 14 15 15 15
35 32 31 31 29 28 27 28 28 29 28 27 29 29 27 24 23 22 22 21 19 19 18 17 16 16 15 15 15 15 15 15 14 14 14 15 14 14 14 15 15 16 15 16
34 32 34 34 30 29 28 27 27 28 29 29 30 30 29 27 24 23 23 22 22 21 20 19 19 18 18 17 17 17 17 17 16 16 16 16 15 15 15 16 17 17 17 17
33 32 33 31 31 30 31 30 29 29 30 31 30 30 29 28 25 24 24 24 23 23 23 22 21 20 20 20 19 19 19 18 18 18 18 17 17 18 18 19 19 19 19 19
34 33 32 31 30 31 31 33 33 33 32 33 32 31 31 29 28 26 25 25 25 25 25 25 24 23 23 22 21 21 21 20 20 20 20 20 20 20 21 21 21 21 20 21
34 33 32 30 31 31 32 33 33 33 33 33 33 33 31 29 29 27 26 26 27 26 26 26 26 25 25 24 23 22 22 22 22 22 22 22 22 22 23 22 22 23 22 22
35 33 31 29 30 32 32 33 33 32 33 33 32 31 31 30 30 28 28 28 28 28 27 27 27 27 27 27 25 24 23 24 24 25 24 23 23 23 23 23 24 24 24 24
35 35 34 32 33 33 33 33 33 34 34 34 32 31 31 31 31 30 29 29 29 29 29 28 28 29 28 28 27 26 26 26 26 26 25 25 25 25 25 24 24 25 25 25
36 37 36 33 34 34 33 34 34 33 33 33 33 32 31 31 31 31 30 30 29 29 29 30 30 30 30 29 28 28 28 28 28 27 27 28 27 27 28 27 27 27 27 26
37 36 35 35 35 33 32 32 32 32 33 33 33 33 32 32 32 31 31 31 31 30 30 31 31 31 31 31 31 31 31 31 31 30 30 30 30 30 30 30 29 28 27 28
37 36 35 35 34 34 32 31 32 32 33 34 33 33 33 32 31 31 32 32 32 31 32 32 32 32 32 32 32 32 32 32 33 33 33 32 32 32 31 31 31 31 30 30
36 36 35 33 34 33 32 32 33 33 33 33 33 33 33 33 33 32 32 32 33 33 33 33 34 33 34 34 33 34 34 35 35 35 34 34 33 31 31 32 32 32 32 32
34 34 34 33 33 34 33 33 33 33 33 33 33 34 33 33 33 33 33 33 33 33 34 35 35 34 34 34 35 34 33 34 34 34 35 34 34 33 32 32 32 32 33 34
32 33 33 34 34 33 33 33 33 33 33 33 33 34 34 34 33 33 34 34 34 34 35 36 36 34 33 33 34 32 32 33 33 34 34 34 34 34 33 33 33 33 34 35
32 31 32 32 33 32 31 31 32 32 32 32 33 33 33 33 33 34 34 34 34 34 35 36 36 35 35 35 34 33 33 33 33 33 34 35 35 34 34 34 34 33 34 34
31 31 30 31 31 31 30 30 31 31 32 32 32 32 33 33 33 34 34 34 34 34 34 33 34 34 34 34 33 33 33 33 34 34 35 34 34 33 34 35 35 34 34 33
30 30 31 31 31 31 31 31 31 32 33 33 33 33 33 33 34 34 35 35 34 34 33 32 32 32 33 32 32 33 34 34 35 34 33 33 33 33 33 33 34 34 34 33
29 29 30 31 30 30 31 31 31 31 31 31 32 32 32 32 31 32 33 33 33 33 32 32 32 32 32 32 33 33 34 35 35 35 34 34 33 33 33 33 32 32 32 31
29 29 29 30 30 30 30 30 30 30 30 30 30 30 31 31 31 31 32 32 33 33 33 33 33 32 32 33 33 34 34 34 34 34 33 33 33 34 33 32 31 31 31 30
28 27 28 29 28 28 29 29 29 29 29 29 29 30 30 30 30 30 30 31 31 32 32 32 32 32 32 32 33 34 34 34 34 34 34 33 33 33 32 31 30 30 30 30
28 28 27 27 27 27 27 28 28 28 28 27 28 28 29 29 30 30 31 31 31 31 31 31 31 31 32 33 33 34 34 34 34 34 34 33 32 32 31 29 29 29 30 30
25 26 26 26 25 25 25 26 26 26 26 26 27 28 28 29 29 29 30 30 30 30 31 30 31 31 32 32 32 33 33 33 33 32 32 31 31 29 28 28 29 29 30 30
23 23 23 23 24 24 24 23 23 23 23 24 24 25 25 26 26 27 28 29 29 29 30 30 31 31 31 31 31 31 32 32 32 31 30 30 31 30 29 29 29 29 29 30
21 22 22 22 21 21 21 21 22 22 22 22 22 23 23 25 26 27 27 28 28 29 29 29 29 29 29 30 30 30 30 30 30 31 30 30 30 30 29 29 29 29 30 30
19 20 20 20 20 21 21 21 21 22 23 23 23 24 24 24 25 25 25 26 26 26 26 26 27 27 26 27 28 28 28 28 28 28 28 29 30 30 30 30 30 29 30 30
17 18 18 18 19 20 21 21 22 22 23 24 24 24 24 24 24 23 22 23 24 23 24 23 23 23 24 25 26 26 26 27 27 27 27 28 29 30 30 30 30 30 30 31
Wind_Direction
217 220 225 233 233 228 225 223 228 236 240 251 254 250 250 250 253 254 257 259 262 267 272 276 281 282 284 287 292 295 301 306 308 308 307 304 305 311 316 318 319 321 320 321
221 220 223 229 229 231 232 230 230 235 239 246 251 248 247 251 253 256 255 255 257 262 265 270 276 279 282 285 289 292 296 301 304 306 306 305 303 304 308 310 312 315 318 320
224 224 226 227 226 227 229 232 234 236 240 244 248 255 251 251 253 255 255 253 254 259 264 265 268 274 276 281 284 288 290 295 299 302 303 304 302 303 305 306 308 310 315 318
224 224 229 229 226 227 229 229 231 238 241 245 250 255 258 255 253 256 257 256 254 256 260 261 263 267 271 277 281 285 286 289 293 295 298 300 300 303 304 305 305 306 309 311
224 228 231 230 227 227 229 231 231 234 238 241 245 252 257 259 255 255 256 257 255 254 255 258 260 263 268 273 278 281 284 286 290 292 293 294 297 298 299 300 302 303 305 308
224 226 230 229 228 228 230 234 234 236 238 241 243 246 251 254 256 256 255 255 254 255 256 259 261 262 266 270 275 278 281 284 287 287 288 290 292 295 296 295 297 298 301 304
223 227 232 229 226 226 230 233 234 236 239 242 243 246 251 253 255 254 254 255 255 257 258 261 262 262 263 266 271 274 279 283 283 285 285 287 288 290 290 291 293 294 297 299
223 226 232 232 231 227 231 234 235 238 241 245 248 249 250 251 252 254 254 255 256 257 258 260 261 263 264 266 270 274 277 281 282 282 281 282 285 286 286 287 291 293 293 296
225 228 230 231 233 233 234 236 238 239 242 246 249 250 249 250 251 252 252 253 255 257 258 258 259 263 265 267 270 273 276 277 279 279 279 280 282 284 284 285 288 292 294 294
226 229 230 233 235 235 236 238 241 242 244 245 248 250 250 250 252 253 252 252 254 255 257 259 260 264 266 267 269 271 273 276 277 278 278 278 280 281 282 283 286 289 292 293
229 229 229 231 235 238 238 239 241 243 244 245 247 249 250 251 252 253 253 254 253 255 257 259 261 263 265 267 268 269 270 273 273 274 278 279 278 278 282 282 284 288 291 293
228 229 232 235 235 237 239 240 242 243 243 244 247 249 250 251 252 253 254 254 254 254 256 258 260 262 264 265 266 266 267 270 272 273 275 277 278 277 280 282 283 285 288 290
229 228 230 235 237 239 239 240 242 244 245 246 247 248 249 251 252 254 254 254 255 256 257 258 259 261 264 266 264 265 266 269 272 273 274 275 277 280 282 283 285 286 289 291
230 231 232 234 238 241 241 241 242 244 246 247 247 247 249 251 252 254 254 254 254 255 256 259 261 262 264 267 268 267 269 271 273 274 275 277 278 280 283 284 286 287 289 291
229 231 233 235 238 241 242 242 244 244 244 246 247 247 248 251 252 253 254 254 256 257 258 259 261 263 264 268 269 269 270 272 273 273 275 276 277 279 281 284 286 288 290 290
230 232 232 234 237 240 241 242 244 244 244 246 247 246 248 250 251 252 254 256 257 258 259 259 260 262 265 267 269 270 271 272 273 274 275 277 278 279 280 283 286 287 288 289
230 231 232 232 235 238 239 240 242 244 245 247 249 249 250 252 254 254 255 256 257 260 262 262 261 262 265 268 269 271 272 273 273 274 276 276 277 277 279 281 283 286 288 288
230 230 231 232 235 237 239 241 243 244 246 248 250 250 251 254 255 256 256 258 260 261 263 264 263 264 265 267 269 271 272 274 274 275 276 276 276 278 279 280 283 285 288 289
230 231 233 234 236 239 240 242 243 245 248 249 250 252 255 256 258 258 258 259 261 262 263 264 264 265 265 268 270 272 272 273 274 273 275 276 276 277 279 281 283 285 287 287
230 230 233 235 236 238 241 242 243 246 248 249 251 253 255 257 259 260 261 262 263 264 265 266 265 265 265 267 271 273 273 273 273 274 275 276 277 278 278 280 281 283 285 286
230 231 235 237 238 239 241 243 246 248 249 250 252 254 256 257 259 260 261 263 263 264 266 266 266 265 266 268 270 272 274 275 275 274 275 276 277 277 277 278 280 282 284 285
231 233 235 237 238 240 242 243 245 247 249 251 253 255 257 259 260 261 261 262 263 264 265 266 267 267 267 268 269 271 272 274 274 275 275 276 276 277 277 277 279 281 283 286
231 233 236 238 240 241 243 245 246 247 248 251 254 257 259 260 261 262 263 263 264 264 265 266 267 267 268 268 269 270 271 272 273 274 274 275 276 276 276 277 279 281 283 284
232 234 236 239 242 243 245 247 247 248 250 253 255 257 259 260 261 262 264 264 266 267 265 265 266 267 267 268 268 269 270 271 273 273 273 274 275 275 277 278 279 281 282 284
235 237 238 241 243 245 248 250 249 249 252 255 257 260 261 262 262 263 264 266 268 269 268 266 266 267 268 268 269 270 270 271 272 272 272 274 274 275 277 277 279 281 283 284
236 238 241 242 244 246 251 253 253 253 255 257 258 260 262 263 264 266 266 267 269 269 269 268 268 268 268 268 269 269 270 271 271 271 271 272 274 275 277 278 279 281 283 285
235 238 241 243 246 249 253 255 256 256 257 258 259 261 262 264 265 266 266 267 267 268 266 266 267 267 269 271 272 273 274 273 273 272 272 273 275 276 278 279 280 281 283 284
Height
5860 5866 5871 5873 5877 5881 5885 5889 5893 5894 5895 5896 5895 5896 5896 5898 5900 5901 5902 5904 5904 5905 5905 5905 5905 5906 5905 5905 5905 5905 5904 5903 5902 5901 5900 5899 5898 5897 5896 5895 5894 5892 5891 5889
5852 5858 5862 5866 5871 5875 5879 5883 5886 5888 5890 5891 5889 5889 5891 5893 5895 5896 5897 5899 5901 5901 5902 5902 5903 5903 5903 5902 5902 5902 5901 5901 5900 5899 5898 5897 5896 5895 5894 5893 5891 5890 5889 5887
5846 5852 5855 5858 5864 5869 5872 5877 5880 5881 5883 5885 5884 5883 5885 5888 5891 5892 5893 5894 5896 5897 5898 5899 5899 5900 5900 5899 5899 5899 5898 5898 5897 5896 5895 5894 5893 5892 5891 5890 5889 5887 5886 5884
5838 5844 5847 5853 5858 5862 5865 5869 5873 5875 5876 5877 5878 5878 5880 5882 5884 5887 5888 5889 5891 5893 5893 5894 5895 5895 5896 5895 5895 5895 5895 5894 5894 5893 5892 5891 5890 5890 5888 5887 5886 5884 5882 5881
5831 5836 5840 5846 5849 5853 5858 5861 5864 5867 5869 5871 5873 5874 5875 5875 5877 5881 5883 5884 5886 5887 5888 5889 5890 5890 5891 5891 5891 5891 5891 5890 5890 5889 5889 5888 5887 5886 5885 5883 5882 5880 5879 5876
5823 5828 5832 5839 5843 5846 5850 5852 5856 5859 5861 5863 5866 5868 5869 5870 5872 5874 5877 5878 5880 5881 5882 5883 5884 5885 5885 5886 5886 5886 5886 5886 5885 5885 5884 5883 5882 5881 5880 5879 5877 5876 5874 5873
5815 5819 5824 5829 5833 5838 5843 5844 5847 5849 5853 5855 5858 5860 5862 5864 5866 5868 5870 5872 5874 5875 5876 5877 5878 5878 5879 5880 5880 5880 5880 5880 5880 5879 5879 5878 5876 5875 5875 5874 5872 5871 5869 5868
5808 5813 5818 5821 5824 5828 5832 5835 5838 5842 5845 5847 5850 5853 5855 5857 5859 5861 5863 5865 5866 5868 5869 5871 5871 5872 5872 5873 5874 5874 5874 5874 5874 5874 5873 5872 5871 5870 5869 5868 5867 5865 5864 5862
5801 5806 5809 5813 5816 5819 5823 5827 5830 5834 5837 5839 5842 5844 5846 5849 5851 5853 5855 5857 5859 5861 5862 5863 5864 5865 5866 5867 5867 5867 5868 5868 5868 5867 5867 5866 5865 5864 5863 5862 5860 5859 5857 5855
5792 5796 5801 5804 5807 5810 5814 5819 5822 5825 5828 5831 5833 5836 5838 5841 5843 5845 5847 5849 5851 5853 5854 5856 5857 5857 5859 5859 5860 5860 5861 5861 5861 5860 5859 5859 5858 5857 5856 5855 5854 5853 5851 5849
5783 5788 5792 5796 5800 5803 5806 5810 5814 5817 5819 5822 5825 5827 5830 5832 5835 5837 5839 5841 5843 5845 5846 5848 5849 5850 5851 5851 5852 5852 5853 5853 5853 5853 5852 5851 5850 5850 5849 5848 5847 5846 5844 5842
5775 5781 5786 5789 5792 5796 5799 5803 5806 5809 5811 5814 5817 5819 5821 5824 5826 5828 5830 5832 5834 5836 5838 5839 5840 5842 5842 5843 5843 5844 5844 5844 5845 5844 5844 5843 5842 5841 5840 5840 5839 5837 5836 5834
5767 5772 5776 5781 5784 5788 5791 5795 5798 5800 5803 5806 5808 5811 5813 5815 5818 5820 5822 5824 5826 5827 5829 5831 5832 5833 5834 5834 5834 5835 5835 5835 5835 5835 5834 5834 5833 5832 5832 5831 5830 5829 5827 5826
5760 5764 5769 5773 5776 5779 5783 5786 5789 5792 5795 5797 5800 5802 5804 5806 5809 5811 5813 5815 5816 5818 5820 5822 5823 5824 5825 5825 5825 5825 5826 5826 5826 5825 5825 5824 5824 5824 5823 5822 5821 5820 5819 5817
5752 5756 5761 5765 5768 5771 5775 5778 5781 5784 5786 5789 5791 5793 5796 5798 5800 5802 5804 5806 5807 5809 5811 5813 5814 5815 5815 5816 5816 5816 5816 5816 5816 5815 5815 5814 5814 5814 5813 5813 5812 5811 5809 5807
5745 5749 5753 5757 5760 5764 5767 5770 5773 5776 5778 5781 5783 5785 5787 5789 5791 5793 5795 5797 5798 5800 5802 5803 5805 5806 5806 5806 5806 5807 5807 5807 5806 5806 5805 5805 5804 5804 5803 5803 5802 5801 5800 5798
5738 5742 5746 5750 5753 5756 5759 5762 5765 5768 5770 5773 5775 5777 5779 5781 5783 5784 5786 5788 5789 5791 5792 5793 5795 5796 5797 5797 5797 5797 5797 5797 5796 5796 5796 5795 5794 5794 5794 5793 5792 5791 5790 5788
5731 5735 5739 5743 5746 5749 5752 5755 5757 5760 5762 5764 5767 5768 5770 5772 5774 5775 5777 5778 5780 5782 5783 5784 5785 5786 5787 5788 5788 5788 5788 5787 5787 5786 5786 5785 5785 5784 5784 5783 5782 5781 5780 5779
5725 5729 5733 5736 5739 5742 5745 5747 5750 5752 5754 5756 5758 5760 5762 5763 5765 5766 5768 5769 5771 5772 5773 5775 5776 5776 5777 5778 5778 5778 5778 5778 5777 5777 5777 5777 5776 5775 5774 5773 5772 5771 5770 5769
5720 5722 5726 5729 5733 5735 5738 5740 5742 5745 5746 5748 5750 5752 5753 5755 5756 5757 5759 5760 5761 5762 5763 5764 5766 5766 5767 5768 5768 5768 5767 5768 5767 5767 5767 5767 5766 5765 5765 5764 5763 5762 5761 5760
5713 5716 5720 5723 5726 5729 5731 5733 5735 5737 5739 5741 5742 5744 5745 5746 5748 5749 5750 5751 5752 5753 5754 5754 5756 5757 5758 5758 5759 5758 5758 5758 5758 5757 5757 5757 5757 5756 5755 5754 5754 5753 5752 5751
5708 5711 5714 5717 5720 5722 5725 5727 5729 5731 5732 5734 5735 5736 5737 5739 5740 5741 5742 5743 5744 5744 5745 5745 5746 5747 5748 5749 5749 5749 5749 5749 5748 5748 5748 5748 5747 5746 5746 5745 5745 5744 5743 5742
5702 5705 5708 5711 5714 5716 5718 5720 5722 5724 5725 5726 5728 5729 5730 5731 5731 5732 5733 5735 5735 5736 5736 5736 5737 5738 5738 5739 5739 5739 5740 5739 5739 5739 5739 5739 5738 5737 5737 5737 5736 5735 5734 5733
5698 5701 5703 5706 5708 5710 5712 5714 5715 5717 5718 5720 5721 5722 5722 5723 5724 5725 5726 5726 5727 5727 5727 5728 5729 5729 5729 5730 5730 5730 5730 5730 5730 5730 5730 5730 5729 5729 5728 5728 5727 5727 5725 5724
5694 5696 5699 5701 5703 5705 5706 5708 5710 5711 5712 5713 5715 5715 5716 5716 5717 5717 5718 5719 5719 5719 5719 5720 5720 5720 5721 5721 5722 5722 5721 5721 5721 5721 5721 5721 5720 5720 5719 5719 5718 5718 5717 5715
5689 5692 5694 5696 5698 5700 5701 5702 5704 5705 5706 5707 5708 5709 5709 5710 5710 5710 5710 5711 5711 5711 5711 5711 5711 5712 5712 5713 5713 5714 5713 5713 5713 5712 5712 5711 5711 5711 5710 5710 5709 5709 5708 5706
5685 5687 5689 5691 5693 5694 5696 5697 5698 5699 5700 5701 5702 5702 5703 5703 5703 5703 5703 5703 5704 5704 5704 5704 5705 5705 5705 5705 5706 5706 5705 5705 5704 5704 5703 5703 5702 5702 5701 5701 5700 5700 5699 5698